Torna al catalogo

STARLINK-38245

AttivoComunicazioniSSO
NORAD 100320·PAYLOAD·🇺🇸 United States

Lanciato Aug 12, 2026 da Vandenberg Space Force Base

Loading…

Prossimi Passaggi (prossime 24 ore)

TLE

AggiornatoSource: Space-Track

Epoca: Sep 14, 2026, 15:15 UTC

1 A0320U 26184V   26257.63585144  .00012792  00000-0  35571-3 0  9999
2 A0320  97.2837 122.8678 0001649  88.1307 272.0127 15.36977828  6467

Traccia STARLINK-38245 in tempo reale con AllMySat

Download on the App Store